Content
SEND FEEDBACK

Daily
Averages
Monthly
Summary
United States of America

FAIRFAX, MISSOURI


Home > North America > United States > Missouri
Elevation: 960 feet     Latitude: 40 20N     Longitude: 095 24W

WEATHER
 
SELECT A DAY
Number of Records: 168,499;   Date Range: 1/1/95 - 8/12/14
 
SHARE

PRINT THIS DATA

[ ← Previous Day ]
WEATHER ALMANAC - JANUARY 23, 2013
[ Next Day → ]
[ °C ]   °F
Weather ElementAverageHighLow
Temperature23.4 °F39 °F (1:53 pm)10.9 °F (5:53 am)
Dewpoint12.2 °F18 °F (11:53 am)6.1 °F (4:53 am)
Humidity64 %81 % (5:53 am)43 % (1:53 pm)
Barometer30.32 in30.51 in (11:53 pm)30.24 in (6:53 am)
Wind Speed7.8 mph16.1 mph (2:53 pm)
Wind Gust21.9 mph (10:53 pm)
Weather ElementAverage
Visibility10 mi
Wind DirectionSSE (157.8 °)

Weather ElementTotal
Precipitation---
Heating Degree Days40.1 (Base 65)
Averaged from 23 records on January 23, 2013
WEATHER CONDITIONS BREAKOUT
WIND DIRECTION BREAKOUT
WEATHER BY HOUR - JANUARY 23, 2013
[ °C ]   °F
Local TimeTemperatureDewpointHumidityBarometerVisibilityWind DirectionWind SpeedGust SpeedPrecipitationEventsConditions
1:53 AM12.9 °F7.0 °F77 %30.29 in10.0 miESE (110°)4.6 mphClear
2:53 AM12.9 °F7.0 °F77 %30.29 in10.0 miSE (130°)5.8 mphClear
3:53 AM12.9 °F7.0 °F77 %30.27 in10.0 miESE (120°)3.5 mphClear
4:53 AM12.0 °F6.1 °F77 %30.26 in10.0 miSSE (150°)4.6 mphClear
5:53 AM10.9 °F6.1 °F81 %30.25 in10.0 miESE (120°)3.5 mphClear
6:53 AM10.9 °F6.1 °F81 %30.24 in10.0 miSE (140°)3.5 mphClear
7:53 AM12.0 °F6.1 °F77 %30.25 in10.0 miCalmClear
8:53 AM17.1 °F10.9 °F77 %30.25 in10.0 miCalmClear
9:53 AM24.1 °F15.1 °F69 %30.27 in10.0 miCalmClear
10:53 AM30.9 °F17.1 °F57 %30.27 in10.0 miNW (320°)4.6 mphClear
11:53 AM35.1 °F18.0 °F50 %30.26 in10.0 miNorth (350°)8.1 mphClear
12:53 PM37.9 °F18.0 °F45 %30.25 in10.0 miNNW (340°)9.2 mphClear
1:53 PM39.0 °F18.0 °F43 %30.25 in10.0 miNorth (350°)12.7 mphClear
2:53 PM39.0 °F18.0 °F43 %30.25 in10.0 miNorth (350°)16.1 mph20.7 mphClear
3:53 PM36.0 °F18.0 °F48 %30.27 in10.0 miNorth (360°)11.5 mphClear
4:53 PM33.1 °F18.0 °F54 %30.31 in10.0 miNNE (20°)15.0 mphClear
5:53 PM30.0 °F16.0 °F56 %30.34 in10.0 miNorth (10°)16.1 mphClear
6:53 PM27.0 °F16.0 °F63 %30.38 in10.0 miNorth (350°)5.8 mphClear
7:53 PM25.0 °F15.1 °F66 %30.41 in10.0 miNorth (10°)9.2 mphClear
8:53 PM23.0 °F10.9 °F60 %30.45 in10.0 miNorth (360°)11.5 mphClear
9:53 PM21.0 °F12.0 °F68 %30.47 in10.0 miNorth (10°)10.4 mphClear
10:53 PM19.0 °F7.0 °F59 %30.50 in10.0 miNorth (10°)13.8 mph21.9 mphClear
11:53 PM16.0 °F7.0 °F68 %30.51 in10.0 miNNE (20°)9.2 mphClear
Hourly data recorded from KFNB, located miles away from Fairfax, Missouri







STORIES FROM OUR PARTNERS